Location: Winnipeg
(49.8830°N, 97.1670°W)
Time: 04:31:38
(UTC-06:00)

ISS - Pass Details

Date: 25 January 2021
Orbit: 417 x 422 km, 51.6° (Epoch: 07 March)

Event Time Altitude Azimuth Distance (km) Brightness Sun altitude
Rises 20:19:25 0° 281° (W) 2,376 1.3 -29.9°
Reaches altitude 10° 20:21:32 10° 284° (WNW) 1,511 0.0 -30.3°
Enters shadow 20:22:10 15° 285° (WNW) 1,261 -0.6 -30.4°
